| time (UTC) | temp F | wind direction | speed MPH | gust MPH | rain 1hr in | rain 24hr in | rain mn in | humidity % | barometer mb |
| 20260505011108 | 77 | 315 | 4.0 | 0.0 | 0.00 | 0.00 | 0.29 | 6 | |
| 20260505010107 | 77 | 270 | 2.0 | 0.0 | 0.00 | 0.00 | 0.29 | 6 | |
| 20260505005108 | 78 | 248 | 1.0 | 0.0 | 0.00 | 0.00 | 0.29 | 6 | |
| 20260505004107 | 78 | 23 | 2.0 | 0.0 | 0.00 | 0.00 | 0.29 | 6 | |
| 20260505003107 | 78 | 338 | 2.0 | 0.0 | 0.00 | 0.00 | 0.29 | 6 | |
| 20260505002107 | 78 | 0 | 2.0 | 0.0 | 0.00 | 0.00 | 0.29 | 6 | |
| 20260505001107 | 78 | 293 | 1.0 | 0.0 | 0.00 | 0.00 | 0.29 | 6 | |
| 20260505000107 | 79 | 338 | 2.0 | 0.0 | 0.00 | 0.00 | 0.29 | 6 | |
| 20260504235108 | 80 | 45 | 2.0 | 0.0 | 0.00 | 0.00 | 0.29 | 6 | |
| 20260504234107 | 80 | 315 | 3.0 | 0.0 | 0.00 | 0.00 | 0.29 | 6 | |
| 20260504233107 | 80 | 270 | 4.0 | 0.0 | 0.00 | 0.00 | 0.29 | 6 | |
| 20260504232108 | 81 | 113 | 2.0 | 0.0 | 0.00 | 0.00 | 0.29 | 6 | |
| 20260504231107 | 81 | 293 | 4.0 | 0.0 | 0.00 | 0.00 | 0.29 | 6 | |
| 20260504230107 | 81 | 248 | 3.0 | 0.0 | 0.00 | 0.00 | 0.29 | 6 | |
| 20260504225107 | 82 | 293 | 2.0 | 0.0 | 0.00 | 0.00 | 0.29 | 6 | |
| 20260504224107 | 82 | 270 | 3.0 | 0.0 | 0.00 | 0.00 | 0.29 | 6 | |
| 20260504223108 | 82 | 203 | 5.0 | 0.0 | 0.00 | 0.00 | 0.29 | 6 | |
| 20260504222107 | 83 | 293 | 2.0 | 0.0 | 0.00 | 0.00 | 0.29 | 6 | |
| 20260504221107 | 83 | 248 | 2.0 | 0.0 | 0.00 | 0.00 | 0.29 | 6 | |
| 20260504220107 | 83 | 270 | 2.0 | 0.0 | 0.00 | 0.00 | 0.29 | 6 | |
| 20260504215107 | 83 | 293 | 2.0 | 0.0 | 0.00 | 0.00 | 0.29 | 6 | |
| 20260504214107 | 84 | 225 | 2.0 | 0.0 | 0.00 | 0.00 | 0.29 | 6 | |
| 20260504213107 | 84 | 293 | 1.0 | 0.0 | 0.00 | 0.00 | 0.29 | 6 | |
| 20260504212107 | 83 | 270 | 3.0 | 0.0 | 0.00 | 0.00 | 0.29 | 5 | |
| 20260504211107 | 84 | 293 | 2.0 | 0.0 | 0.00 | 0.00 | 0.29 | 5 | |
| 20260504210107 | 84 | 90 | 2.0 | 0.0 | 0.00 | 0.00 | 0.29 | 5 | |
| 20260504205107 | 84 | 270 | 3.0 | 0.0 | 0.00 | 0.00 | 0.29 | 5 | |
| 20260504204108 | 84 | 23 | 2.0 | 0.0 | 0.00 | 0.00 | 0.29 | 5 | |
| 20260504203107 | 84 | 315 | 2.0 | 0.0 | 0.00 | 0.00 | 0.29 | 5 | |
| 20260504202107 | 84 | 315 | 2.0 | 0.0 | 0.00 | 0.00 | 0.29 | 5 | |
| 20260504201107 | 84 | 270 | 3.0 | 0.0 | 0.00 | 0.00 | 0.29 | 5 | |
| 20260504200108 | 83 | 248 | 1.0 | 0.0 | 0.00 | 0.00 | 0.29 | 6 | |
| 20260504195108 | 82 | 270 | 3.0 | 0.0 | 0.00 | 0.00 | 0.29 | 5 | |
| 20260504194107 | 83 | 248 | 5.0 | 0.0 | 0.00 | 0.00 | 0.29 | 5 | |
| 20260504193106 | 84 | 270 | 4.0 | 0.0 | 0.00 | 0.00 | 0.29 | 6 | |
| 20260504192107 | 83 | 315 | 3.0 | 0.0 | 0.00 | 0.00 | 0.29 | 5 | |
| 20260504191107 | 82 | 315 | 2.0 | 0.0 | 0.00 | 0.00 | 0.29 | 6 | |
| 20260504190106 | 81 | 0 | 3.0 | 0.0 | 0.00 | 0.00 | 0.29 | 6 | |
| 20260504185107 | 80 | 315 | 3.0 | 0.0 | 0.00 | 0.00 | 0.29 | 6 | |
| 20260504184106 | 80 | 203 | 2.0 | 0.0 | 0.00 | 0.00 | 0.29 | 6 | |
| 20260504183106 | 79 | 293 | 3.0 | 0.0 | 0.00 | 0.00 | 0.29 | 6 | |
| 20260504182107 | 78 | 203 | 5.0 | 0.0 | 0.00 | 0.00 | 0.29 | 6 | |
| 20260504181108 | 78 | 293 | 2.0 | 0.0 | 0.00 | 0.00 | 0.29 | 6 | |
| 20260504180107 | 78 | 270 | 5.0 | 0.0 | 0.00 | 0.00 | 0.29 | 6 | |
| 20260504175107 | 77 | 338 | 2.0 | 0.0 | 0.00 | 0.00 | 0.29 | 6 | |
| 20260504174107 | 77 | 225 | 4.0 | 0.0 | 0.00 | 0.00 | 0.30 | 6 | |
| 20260504173107 | 76 | 338 | 4.0 | 0.0 | 0.00 | 0.00 | 0.30 | 6 | |
| 20260504172107 | 75 | 293 | 3.0 | 0.0 | 0.00 | 0.00 | 0.30 | 7 | |
| 20260504171107 | 75 | 338 | 3.0 | 0.0 | 0.00 | 0.00 | 0.30 | 7 | |
| 20260504170107 | 75 | 270 | 2.0 | 0.0 | 0.00 | 0.00 | 0.30 | 7 | |
| 20260504160107 | 73 | 293 | 2.0 | 0.0 | 0.00 | 0.00 | 0.30 | 7 | |
| 20260504151107 | 70 | 270 | 2.0 | 0.0 | 0.00 | 0.00 | 0.30 | 7 | |
| 20260504150107 | 69 | 338 | 2.0 | 0.0 | 0.00 | 0.00 | 0.30 | 7 | |
| 20260504141107 | 66 | 338 | 2.0 | 0.0 | 0.00 | 0.00 | 0.30 | 8 | |
| 20260504140107 | 65 | 338 | 1.0 | 0.0 | 0.00 | 0.00 | 0.30 | 8 | |
| 20260504130108 | 61 | 293 | 2.0 | 0.0 | 0.00 | 0.00 | 0.30 | 8 | |
| 20260504120107 | 60 | 270 | 0.0 | 0.0 | 0.00 | 0.00 | 0.30 | 8 | |
| 20260504110107 | 60 | 293 | 2.0 | 0.0 | 0.00 | 0.00 | 0.30 | 8 | |
| 20260504100106 | 61 | 270 | 2.0 | 0.0 | 0.00 | 0.00 | 0.30 | 8 | |
| 20260504090106 | 62 | 338 | 1.0 | 0.0 | 0.00 | 0.00 | 0.30 | 8 | |
| 20260504081107 | 62 | 113 | 2.0 | 0.0 | 0.00 | 0.00 | 0.30 | 7 | |
| 20260504080107 | 63 | 338 | 2.0 | 0.0 | 0.00 | 0.00 | 0.30 | 7 | |
| 20260504070106 | 63 | 293 | 1.0 | 0.0 | 0.00 | 0.00 | 0.30 | 7 | |
| 20260504060107 | 64 | 225 | 0.0 | 0.0 | 0.00 | 0.00 | 0.30 | 7 | |
| 20260504050108 | 64 | 248 | 2.0 | 0.0 | 0.00 | 0.00 | 0.30 | 6 | |
| 20260504045108 | 64 | 293 | 0.0 | 0.0 | 0.00 | 0.00 | 0.30 | 6 | |
| 20260504044107 | 64 | 293 | 2.0 | 0.0 | 0.00 | 0.00 | 0.30 | 6 | |
| 20260504043107 | 63 | 225 | 0.0 | 0.0 | 0.00 | 0.00 | 0.30 | 6 | |
| 20260504042106 | 63 | 248 | 0.0 | 0.0 | 0.00 | 0.00 | 0.30 | 6 | |
| 20260504041107 | 63 | 225 | 0.0 | 0.0 | 0.00 | 0.00 | 0.30 | 6 | |
| 20260504040106 | 63 | 270 | 0.0 | 0.0 | 0.00 | 0.00 | 0.30 | 6 | |
| 20260504035107 | 63 | 225 | 0.0 | 0.0 | 0.00 | 0.00 | 0.30 | 6 | |
| 20260504034107 | 64 | 225 | 0.0 | 0.0 | 0.00 | 0.00 | 0.30 | 6 | |
| 20260504033108 | 64 | 225 | 0.0 | 0.0 | 0.00 | 0.00 | 0.30 | 6 | |
| 20260504032107 | 65 | 225 | 0.0 | 0.0 | 0.00 | 0.00 | 0.30 | 6 | |
| 20260504031107 | 66 | 225 | 0.0 | 0.0 | 0.00 | 0.00 | 0.30 | 6 | |
| 20260504030107 | 66 | 225 | 0.0 | 0.0 | 0.00 | 0.00 | 0.30 | 5 | |
| 20260504025106 | 66 | 225 | 0.0 | 0.0 | 0.00 | 0.00 | 0.30 | 5 | |
| 20260504024106 | 66 | 248 | 0.0 | 0.0 | 0.00 | 0.00 | 0.30 | 5 | |
| 20260504023107 | 67 | 248 | 0.0 | 0.0 | 0.00 | 0.00 | 0.30 | 5 | |
| 20260504022106 | 67 | 270 | 0.0 | 0.0 | 0.00 | 0.00 | 0.30 | 5 | |
| 20260504021106 | 68 | 225 | 0.0 | 0.0 | 0.00 | 0.00 | 0.30 | 5 | |
| 20260504020107 | 68 | 225 | 0.0 | 0.0 | 0.00 | 0.00 | 0.30 | 5 | |
| 20260504015107 | 69 | 225 | 0.0 | 0.0 | 0.00 | 0.00 | 0.30 | 5 | |
| 20260504014107 | 69 | 225 | 0.0 | 0.0 | 0.00 | 0.00 | 0.30 | 5 | |
| 20260504013108 | 70 | 248 | 0.0 | 0.0 | 0.00 | 0.00 | 0.30 | 5 | |
| 20260504012107 | 71 | 225 | 0.0 | 0.0 | 0.00 | 0.00 | 0.30 | 5 |